Weather in Sundance

United States     44°24′22″N   104°22′28″W
temp.,
°C
wind,
m/s
gust,
m/s
humid.,
%
clouds,
%
prec.,
mm/h
press.,
hPa
HPBL,
m
16 september, thu
thu1600:00+17ssw44255 0.0 100242
03:00+17sw58272 0.0 100298
06:00+14sw46320 0.0 100478
09:00+15nne44400 0.0 1007463
12:00+20ne32320 0.0 1006827
15:00+23ne45230 0.0 10051515
18:00+20n872813 0.0 10091522
21:00+7nne496930 0.0 1019539
17 september, fri
fri1700:00+6nne12705 0.0 102159
03:00+5s11690 0.0 102312
06:00+5s22470 0.0 102415
09:00+12s47280 0.0 1020605
12:00+17ssw811315 0.0 10171023
15:00+21ssw101320100 0.0 10131118
18:00+21s8142586 0.0 1011933
21:00+19ssw7153087 0.0 1011427
18 september, sat
sat1800:00+17ssw612395 0.0 1011194
03:00+15sw59385 0.0 1012126
06:00+15sw57340 0.0 101283
09:00+23ssw611170 0.0 1010382
12:00+30sw81190 0.0 10081783
15:00+32sw91290 0.0 10053473
18:00+29wsw6111588 0.0 10041148
21:00+24sw91628100 0.0 1006949
19 september, sun
sun1900:00+21sw9173716 0.0 1006783
03:00+19sw8154264 0.0 1006583
06:00+17ssw713470 0.0 1007360
09:00+21sw79360 0.0 1005465
12:00+28sw66180 0.0 10022191
15:00+29sw912146 0.0 9993664
18:00+27wsw9151611 0.0 9973166
21:00+16nw12163524 0.0 1005897
20 september, mon
mon2000:00+8nnw358299 0.0 1010313
03:00+10wnw61077100 0.1 1011935
06:00+6wnw378423 0.1 1015320
09:00+10nnw7106697 0.4 10161292
12:00+12nw81054100 0.9 10171612
15:00+11nw7853100 0.8 10191543
18:00+11nw6852100 0.9 10201234
21:00+8w35691 0.0 1023155